Wind_Speed
6 7 7 7 7 7 8 9 9 9 10 11 11 12 12 13 14 15 15 16 17 18 18 19 19 19 20 20 21 22 23 24 25 26 27 27 28 29
7 7 7 8 9 8 9 9 10 10 11 12 13 13 14 14 15 16 17 17 18 19 19 20 21 22 22 22 23 24 25 25 26 27 27 28 29 30
8 8 9 9 10 9 10 11 12 13 13 14 14 15 16 17 17 18 18 18 20 20 21 21 22 22 23 24 25 26 26 27 27 28 29 30 31 31
9 10 10 10 11 11 12 13 13 14 15 16 16 17 17 18 19 19 20 20 21 22 23 24 24 25 25 26 26 26 27 28 29 29 31 32 33 33
10 11 11 12 13 14 15 15 15 16 17 17 18 18 18 19 20 20 21 22 23 23 24 24 25 26 27 27 27 28 29 30 30 31 32 33 34 35
12 12 13 14 15 15 16 16 17 17 18 18 18 19 20 20 21 21 22 23 24 24 25 26 27 27 28 28 29 30 31 32 33 34 34 35 36 36
13 14 14 15 16 16 17 17 18 18 19 20 20 20 21 21 22 23 24 25 25 26 26 27 28 28 29 30 31 32 33 34 35 35 36 36 36 37
15 15 15 16 17 17 18 19 19 20 20 21 21 22 22 23 24 25 25 26 27 28 28 28 29 29 31 32 33 33 34 35 36 36 37 37 38 38
16 16 16 17 17 18 19 20 20 21 21 22 23 23 24 25 26 26 27 27 27 28 28 29 30 32 32 33 34 34 35 36 37 38 38 38 38 39
17 17 17 18 19 20 21 21 22 23 24 25 25 25 26 26 27 28 28 29 29 29 30 30 31 33 34 35 35 36 37 38 38 38 39 39 39 39
19 19 20 21 21 21 22 23 24 25 25 26 26 27 27 28 29 29 29 30 30 31 31 32 33 34 35 36 37 38 38 39 40 40 40 40 40 40
20 20 21 21 22 23 24 24 25 26 26 27 27 28 28 29 29 30 30 31 32 32 33 34 35 36 36 37 38 39 39 40 40 40 40 41 41 42
20 20 21 22 22 23 24 25 25 26 27 28 28 29 29 30 30 31 31 32 33 34 34 35 36 36 37 37 38 39 40 40 41 41 41 42 42 42
20 21 22 23 23 24 25 25 26 26 27 28 29 29 30 31 31 32 33 34 35 35 36 36 36 37 38 38 39 40 41 42 42 42 42 43 43 43
21 22 23 24 24 25 25 26 27 28 28 29 29 30 31 32 32 33 34 35 36 36 37 38 38 39 40 40 41 41 42 42 43 43 44 44 44 45
22 23 24 25 25 25 26 27 28 29 29 30 30 31 32 32 33 34 35 36 37 37 39 40 41 41 42 43 43 43 44 44 43 44 45 45 45 46
24 24 25 26 26 27 27 28 29 30 31 32 32 33 33 33 34 35 36 37 38 39 40 41 42 43 44 44 44 45 45 45 45 45 45 45 46 47
26 26 27 27 28 28 28 29 30 31 33 33 33 34 34 34 35 36 38 39 39 40 41 42 43 43 44 44 45 45 45 45 45 45 45 45 46 47
26 27 27 28 29 30 30 31 32 33 34 34 34 35 35 36 37 38 39 40 40 41 41 42 43 43 43 43 43 44 44 44 44 44 45 45 46 46
26 27 28 29 30 31 32 33 34 34 35 35 36 36 37 37 38 39 40 41 41 41 42 42 43 43 43 43 43 44 44 44 44 44 44 44 44 44
28 29 30 31 32 33 34 34 35 35 36 36 37 37 38 38 39 39 40 40 41 41 42 43 43 43 43 43 43 43 43 43 43 42 42 42 43 44
30 31 32 33 34 34 34 35 35 36 36 37 37 38 39 40 40 40 40 40 41 42 42 43 43 43 43 42 42 42 42 42 42 42 42 42 43 43
31 32 33 34 35 35 36 36 37 37 37 38 38 39 40 40 40 40 41 41 42 42 43 43 43 43 42 41 41 41 42 42 41 41 41 42 42 43
Wind_Direction
310 311 315 314 312 309 308 305 302 300 302 302 303 302 301 300 300 299 297 296 293 291 290 289 289 286 284 284 285 286 285 284 284 284 283 282 282 282
311 310 309 312 312 308 307 305 303 302 302 302 303 304 302 300 300 298 297 297 296 294 293 292 292 291 289 287 286 285 286 285 284 284 284 284 284 283
306 304 304 304 307 305 305 303 303 301 301 301 302 302 300 299 299 299 298 298 297 296 295 294 294 292 292 291 290 288 288 288 287 286 284 285 284 284
300 298 298 301 304 304 304 304 303 304 302 301 301 301 300 300 298 298 301 301 300 298 296 295 294 293 293 292 292 291 293 292 291 291 290 288 287 286
298 297 298 301 302 302 301 301 302 303 303 303 301 302 301 302 302 300 301 302 302 301 299 297 295 294 293 293 292 292 293 294 293 294 294 293 291 289
297 298 300 301 301 301 301 301 301 302 303 303 303 303 303 303 303 302 302 303 302 302 301 298 296 295 294 293 293 294 294 294 294 294 294 293 292 290
296 298 299 301 302 302 302 302 303 303 303 303 304 304 303 303 304 303 302 302 302 302 302 300 299 297 295 294 294 295 295 295 295 295 294 293 292 291
296 298 297 299 302 302 303 304 304 303 303 303 304 304 303 303 303 302 302 303 302 302 301 301 300 300 299 297 296 296 296 296 296 295 295 293 292 292
296 297 298 301 302 304 304 304 304 304 305 304 304 303 302 302 303 303 303 302 301 300 299 300 300 300 300 299 299 298 297 297 297 297 296 295 294 292
294 295 297 298 300 301 302 302 303 303 303 303 303 302 302 302 302 302 302 302 301 300 300 300 300 301 300 300 299 299 298 297 297 297 297 296 295 294
293 295 296 296 298 299 301 302 303 302 302 302 301 302 302 303 303 302 302 301 302 302 301 301 302 303 302 301 300 299 298 298 297 297 296 296 296 295
294 296 297 298 299 300 302 303 303 302 302 302 302 302 303 303 303 302 302 303 303 304 303 303 303 303 303 302 302 301 301 300 300 299 297 296 296 295
293 295 297 299 300 301 303 304 305 305 304 304 304 304 303 303 303 303 303 304 305 305 305 305 305 304 304 303 303 302 302 301 301 300 300 298 297 297
293 295 297 298 299 302 303 304 305 306 306 306 306 306 304 303 304 304 305 305 306 306 306 306 306 306 305 304 304 303 303 303 302 301 300 299 299 299
295 296 298 299 299 301 302 304 306 306 307 307 308 307 307 306 305 306 306 307 307 306 306 306 306 306 305 304 304 304 303 303 302 301 300 299 299 299
295 296 298 299 300 301 302 303 305 306 307 307 308 308 308 307 306 306 307 307 307 307 307 307 306 306 305 305 304 304 304 304 303 302 302 301 300 299
294 295 297 299 300 301 301 302 303 304 306 306 307 308 309 308 307 307 307 308 308 308 307 307 307 306 306 305 305 305 305 304 303 303 302 301 301 301
293 295 296 298 300 300 301 302 303 304 305 306 306 307 307 307 308 308 308 308 308 308 308 309 308 308 307 307 307 307 307 306 305 305 304 303 303 303
294 295 296 297 299 300 302 304 305 305 306 306 306 307 307 308 308 308 308 309 309 309 309 310 310 309 309 309 308 308 308 307 307 306 305 305 305 305
296 296 298 298 299 300 302 303 305 305 306 306 307 307 307 307 308 309 309 310 310 310 310 311 311 311 311 310 309 309 309 308 308 307 306 306 306 307
295 297 298 298 299 300 302 303 304 305 306 307 307 308 308 308 309 310 310 310 311 311 312 312 312 311 311 311 311 311 311 310 310 309 308 308 308 309
294 296 298 299 299 300 301 303 304 305 306 307 308 307 308 309 310 310 311 311 312 312 312 313 313 313 313 313 314 313 313 313 313 312 311 311 311 312
294 296 297 297 298 299 301 302 303 305 306 307 307 308 309 310 311 311 311 311 311 312 312 313 314 314 314 314 315 315 315 314 313 313 313 313 314 315
Height
5851 5850 5849 5848 5848 5847 5846 5845 5844 5843 5842 5841 5839 5838 5837 5835 5834 5833 5831 5830 5829 5828 5827 5825 5824 5823 5821 5820 5818 5817 5816 5814 5813 5812 5811 5809 5808 5807
5850 5849 5848 5847 5846 5845 5844 5843 5842 5841 5839 5838 5836 5835 5834 5832 5831 5829 5827 5826 5824 5823 5822 5820 5819 5817 5816 5814 5813 5811 5809 5808 5806 5805 5803 5802 5800 5799
5848 5847 5847 5845 5844 5843 5842 5840 5839 5838 5836 5835 5833 5832 5831 5829 5827 5825 5823 5822 5820 5818 5816 5815 5813 5812 5810 5808 5806 5804 5803 5801 5799 5797 5795 5794 5792 5790
5846 5845 5844 5843 5842 5841 5839 5838 5836 5835 5833 5832 5830 5828 5827 5825 5823 5821 5819 5817 5815 5813 5811 5809 5807 5805 5803 5801 5799 5797 5795 5793 5791 5789 5787 5785 5783 5781
5844 5843 5842 5840 5839 5838 5836 5835 5833 5831 5830 5828 5826 5824 5822 5820 5818 5816 5814 5812 5809 5807 5805 5802 5800 5798 5796 5794 5792 5790 5788 5786 5783 5781 5778 5775 5773 5771
5841 5840 5839 5837 5836 5834 5833 5831 5829 5827 5826 5824 5822 5819 5817 5815 5813 5811 5808 5806 5803 5801 5798 5796 5793 5791 5789 5787 5785 5782 5780 5777 5774 5772 5769 5766 5763 5760
5838 5836 5835 5834 5832 5831 5829 5827 5825 5823 5821 5819 5817 5815 5812 5810 5808 5805 5803 5800 5797 5795 5792 5789 5786 5784 5781 5779 5776 5774 5771 5768 5765 5762 5759 5756 5752 5749
5834 5832 5831 5830 5828 5827 5825 5823 5821 5818 5816 5814 5812 5810 5807 5805 5802 5799 5797 5794 5791 5789 5785 5782 5779 5776 5773 5771 5768 5765 5762 5759 5755 5752 5749 5745 5742 5738
5830 5828 5827 5825 5824 5822 5820 5818 5815 5813 5811 5809 5806 5804 5801 5799 5796 5793 5790 5787 5784 5781 5778 5775 5772 5768 5765 5762 5759 5755 5752 5748 5745 5742 5738 5735 5731 5727
5825 5824 5822 5821 5819 5817 5815 5813 5810 5808 5805 5803 5800 5797 5795 5792 5789 5786 5783 5780 5777 5774 5770 5768 5764 5760 5757 5753 5749 5746 5742 5738 5735 5731 5727 5723 5719 5716
5820 5819 5817 5815 5813 5811 5809 5807 5805 5802 5799 5796 5793 5790 5788 5785 5781 5779 5776 5773 5769 5766 5762 5759 5755 5752 5748 5743 5739 5736 5732 5728 5723 5719 5715 5711 5707 5704
5815 5813 5811 5810 5808 5805 5803 5801 5798 5796 5793 5790 5787 5784 5781 5777 5774 5771 5768 5765 5761 5758 5754 5750 5746 5742 5739 5734 5729 5725 5720 5716 5712 5707 5703 5699 5695 5691
5810 5808 5806 5804 5802 5800 5797 5795 5792 5789 5786 5783 5780 5777 5773 5770 5767 5763 5760 5756 5753 5749 5745 5741 5737 5732 5728 5724 5719 5714 5709 5705 5700 5695 5691 5686 5682 5678
5804 5802 5801 5799 5796 5794 5791 5789 5786 5783 5780 5777 5773 5770 5766 5762 5759 5755 5751 5748 5744 5740 5736 5731 5727 5722 5718 5713 5709 5704 5699 5693 5689 5684 5679 5675 5670 5665
5799 5797 5795 5793 5790 5788 5785 5782 5779 5776 5773 5769 5766 5762 5758 5755 5751 5747 5743 5739 5735 5730 5726 5721 5717 5712 5707 5702 5697 5692 5687 5682 5677 5672 5667 5662 5658 5653
5793 5791 5788 5786 5784 5781 5779 5776 5773 5769 5766 5762 5758 5755 5750 5747 5743 5739 5734 5730 5726 5721 5716 5711 5706 5701 5696 5690 5685 5680 5675 5670 5665 5660 5655 5649 5644 5639
5786 5784 5782 5780 5777 5774 5772 5769 5766 5762 5758 5755 5751 5747 5742 5738 5734 5730 5726 5721 5716 5712 5706 5701 5695 5689 5684 5678 5673 5667 5662 5657 5651 5646 5641 5636 5631 5625
5780 5777 5775 5773 5770 5767 5764 5761 5758 5754 5750 5746 5742 5738 5734 5730 5725 5721 5716 5711 5706 5701 5696 5690 5685 5679 5673 5666 5661 5655 5650 5644 5639 5633 5628 5623 5618 5612
5772 5770 5768 5765 5762 5760 5757 5753 5750 5746 5742 5738 5734 5730 5725 5721 5716 5711 5707 5701 5696 5691 5685 5679 5674 5668 5662 5656 5650 5643 5638 5633 5627 5621 5616 5610 5605 5599
5765 5762 5760 5757 5755 5752 5748 5745 5741 5737 5733 5729 5725 5720 5716 5711 5707 5702 5696 5691 5686 5680 5675 5669 5663 5657 5650 5645 5639 5633 5626 5620 5615 5609 5604 5598 5592 5586
5757 5755 5752 5749 5746 5743 5740 5736 5732 5728 5724 5720 5716 5711 5706 5701 5697 5692 5686 5681 5675 5670 5664 5658 5652 5646 5639 5633 5628 5622 5615 5608 5603 5597 5592 5587 5582 5576
5749 5746 5744 5741 5737 5734 5731 5727 5723 5719 5715 5711 5706 5701 5696 5691 5686 5681 5676 5671 5665 5660 5654 5648 5641 5635 5629 5623 5617 5611 5605 5598 5591 5585 5580 5575 5569 5563
5740 5737 5734 5731 5728 5725 5721 5718 5714 5710 5705 5701 5696 5692 5687 5682 5676 5671 5666 5660 5655 5649 5643 5637 5631 5624 5618 5612 5606 5600 5594 5588 5582 5576 5570 5563 5558 5551